Regional Weather Roundup
Issued by NWS Midland/Odessa, TX

Skip options and go directly to product.
Home | Oldest Version | Previous Version | Current Version | All | Text Only | Save Text | Print | Product List | Glossary Off

Skip product version selection by date and time.   

583
ASUS44 KMAF 211810
RWRMAF
MIDLAND AREA WEATHER ROUNDUP
NATIONAL WEATHER SERVICE MIDLAND TX
1200 PM CST FRI NOV 21 2014

...IN SOUTHWEST TEXAS AND SOUTHEAST NEW MEXICO...

CITY           SKY/WX    TMP DP  RH WIND       PRES   REMARKS
ALPINE         MOSUNNY   70  33  24 SW15G21   30.12F
ANDREWS        FAIR      60  37  41 CALM      30.05F
ARTESIA        NOT AVBL
BIG SPRING     MOSUNNY   65  47  52 S9        30.07F
CARLSBAD       SUNNY     59  22  24 VRB5      30.03F
DRYDEN           N/A     59  53  80 SE10      30.06F
FORT STOCKTON  MOSUNNY   69  41  36 E10       30.03F
GUAD PASS      SUNNY     61  22  22 SW10      30.09F
HOBBS          SUNNY     64  19  17 S7        30.05F
MARFA          MOSUNNY   66  36  32 SE13G18   30.11F
MIDLAND AIRPK  MOSUNNY   61  48  63 SE3       30.06F
MIDLAND INTL   MOSUNNY   61  48  62 S7        30.05F
ODESSA         MOSUNNY   59  45  59 S8        30.06F
PECOS          MOSUNNY   59  36  42 NE7       30.03F
PRESIDIO       FAIR      63  38  40 CALM      30.04F
SEMINOLE       MOSUNNY   62  24  23 S6        30.05F
SNYDER         MOSUNNY   59  47  66 S8        30.07F
WINK           MOSUNNY   60  39  45 SE8       30.03F
$$
...OTHER STATIONS IN TEXAS...

CITY           SKY/WX    TMP DP  RH WIND       PRES   REMARKS
ABILENE        MOSUNNY   66  53  63 SW20      30.05F
AMARILLO       SUNNY     50  37  61 VRB3      30.04F
AUSTIN         CLOUDY    69  65  86 S7        30.09F
BROWNSVILLE    PTSUNNY   79  69  71 SE24G32   30.07F
CORPUS CHRISTI CLOUDY    77  66  68 SE21G28   30.07F
DALLAS FTW     CLOUDY    64  60  87 S14       30.10F
DEL RIO        CLOUDY    65  62  90 SE3       30.04F FOG
EL PASO        MOSUNNY   61  23  23 CALM      30.02F
HOUSTON INT    LGT RAIN  65  64  97 SE9       30.15F
LUBBOCK        MOSUNNY   55  34  45 VRB3      30.04F
SAN ANGELO     MOSUNNY   70  54  56 S15       30.05F
SAN ANTONIO    PTSUNNY   72  65  78 SE7       30.07F
WACO           CLOUDY    66  62  87 SE10      30.10F
WICHITA FALLS  NOT AVBL
$$
...OTHER LOCATIONS IN NEW MEXICO...

CITY           SKY/WX    TMP DP  RH WIND       PRES   REMARKS
ALAMAGORDO     MOSUNNY   59  19  21 S6        30.06F
ALBUQUERQUE    PTSUNNY   45  15  30 NW5       30.09F
CANNON AFB     SUNNY     55  29  36 SW5       30.03F
CLOVIS         SUNNY     54  30  40 S5        30.03F
HOLLOMAN AFB   MOSUNNY   57  21  24 S8        30.04F
ROSWELL        SUNNY     56  24  29 N3        30.03F
RUIDOSO        MOSUNNY   54  16  22 SW17G24   30.10F
SANTA FE       PTSUNNY   46  19  34 N14       30.07F WCI  40
TRUTH OR CONSE PTSUNNY   53  18  25 E6        30.04F
TUCUMCARI      SUNNY     50  28  42 CALM      30.02F
$$

USA.gov is the U.S. government's official web portal to all federal, state and local government web resources and services.